Weather History for Hatteras, NC

Change the Weather History Date:

Wednesday, May 8, 2013

  Actual Average Record
Temperature  
Mean Temperature 63 °F 65 °F  
Max Temperature 71 °F 72 °F 85 °F (1964)
Min Temperature 54 °F 58 °F 42 °F (1963)
Degree Days  
Heating Degree Days 2 2  
Month to date heating degree days 11 22  
Since 1 July heating degree days 2404 2556  
Cooling Degree Days 0 2  
Month to date cooling degree days 5 16  
Year to date cooling degree days 14 44  
Growing Degree Days 12 (Base 50)    
Moisture  
Dew Point 56 °F    
Average Humidity 76    
Maximum Humidity 93    
Minimum Humidity 59    
Precipitation  
Precipitation T in 0.12 in 1.85 in (1978)
Month to date precipitation 0.95 0.95  
Year to date precipitation 16.77 18.62  
Snow  
Snow 0.00 in - - ()
Month to date snowfall 0.0  
Since 1 July snowfall 0.0  
Snow Depth 0.00 in    
Sea Level Pressure  
Sea Level Pressure 30.01 in    
Wind  
Wind Speed 5 mph (SW)    
Max Wind Speed 12 mph    
Max Gust Speed 16 mph    
Visibility 8 miles    
Events      
T = Trace of Precipitation, MM = Missing Value Source: NWS Daily Summary

Daily Weather History Graph

Daily Weather History Graph

Search for Another Location

Airport:

Trip Planner

Search our weather history database for the weather conditions in past years. The results will help you decide how hot, cold, wet, or windy it might be!

Date:

Astronomy

May. 08, 2013 Rise Set
Actual Time 6:04 AM EDT 7:54 PM EDT
Civil Twilight 5:36 AM EDT 8:22 PM EDT
Nautical Twilight 5:03 AM EDT 8:55 PM EDT
Astronomical Twilight 4:27 AM EDT 9:31 PM EDT
Moon 5:07 AM EDT (5/8) 6:52 PM EDT (5/8)
Length of Visible Light 14h 45m
Length of Day
13h 50m
Waning Crescent, 2% of the Moon is Illuminated
May 8
Waning Crescent
May 9
New
May 18
First Quarter
May 25
Full
May 31
Last Quarter

Hourly Weather History & Observations

Time (EDT) Temp. Dew Point Humidity Pressure Visibility Wind Dir Wind Speed Gust Speed Precip Events Conditions
12:51 AM 60.1 °F 52.0 °F 75% 29.99 in 10.0 mi West 6.9 mph - N/A   Clear
1:51 AM 60.1 °F 53.1 °F 78% 29.98 in 7.0 mi West 5.8 mph - N/A   Clear
2:51 AM 60.1 °F 54.0 °F 80% 29.97 in 10.0 mi West 3.5 mph - N/A   Clear
3:51 AM 55.0 °F 51.1 °F 86% 29.97 in 10.0 mi West 3.5 mph - N/A   Partly Cloudy
4:51 AM 54.0 °F 51.1 °F 90% 29.96 in 10.0 mi Calm Calm - N/A   Partly Cloudy
5:23 AM 55.4 °F 53.6 °F 94% 29.96 in 2.5 mi Calm Calm - N/A   Overcast
5:30 AM 55.4 °F 53.6 °F 94% 29.97 in 7.0 mi Calm Calm - N/A   Overcast
5:51 AM 57.9 °F 55.0 °F 90% 29.98 in 1.5 mi Calm Calm - N/A   Overcast
6:51 AM 59.0 °F 55.9 °F 90% 29.99 in 2.0 mi Calm Calm - 0.00 in   Mostly Cloudy
7:01 AM 59.0 °F 57.2 °F 94% 30.00 in 1.8 mi Calm Calm - N/A   Mostly Cloudy
7:17 AM 60.8 °F 57.2 °F 88% 30.00 in 1.0 mi Calm Calm - N/A   Scattered Clouds
7:51 AM 63.0 °F 57.0 °F 81% 30.02 in 2.5 mi Calm Calm - N/A   Haze
7:59 AM 64.4 °F 57.2 °F 77% 30.02 in 5.0 mi Calm Calm - N/A   Haze
8:51 AM 66.0 °F 57.0 °F 73% 30.04 in 8.0 mi Calm Calm - N/A   Mostly Cloudy
9:30 AM 66.2 °F 57.2 °F 73% 30.04 in 8.0 mi SSE 5.8 mph - N/A   Scattered Clouds
9:51 AM 66.9 °F 55.9 °F 68% 30.04 in 10.0 mi SSE 4.6 mph - N/A   Clear
10:51 AM 68.0 °F 54.0 °F 61% 30.05 in 10.0 mi South 3.5 mph - N/A   Clear
11:51 AM 69.1 °F 55.9 °F 63% 30.04 in 10.0 mi SSW 5.8 mph - N/A   Clear
12:51 PM 69.1 °F 55.0 °F 61% 30.05 in 10.0 mi SW 6.9 mph - N/A   Clear
1:51 PM 69.1 °F 57.0 °F 65% 30.04 in 10.0 mi SSW 6.9 mph - N/A   Clear
2:51 PM 69.1 °F 57.0 °F 65% 30.03 in 10.0 mi South 8.1 mph - N/A   Clear
3:51 PM 70.0 °F 59.0 °F 68% 30.02 in 10.0 mi South 6.9 mph - N/A   Clear
4:51 PM 70.0 °F 57.9 °F 65% 30.00 in 10.0 mi South 8.1 mph - N/A   Clear
5:51 PM 69.1 °F 59.0 °F 70% 29.99 in 10.0 mi SSW 6.9 mph - N/A   Clear
6:51 PM 68.0 °F 57.0 °F 68% 29.99 in 10.0 mi SW 6.9 mph - N/A   Clear
7:51 PM 66.0 °F 57.9 °F 75% 30.00 in 10.0 mi SSW 9.2 mph - N/A   Clear
8:51 PM 64.9 °F 57.9 °F 78% 30.01 in 10.0 mi SW 8.1 mph - N/A   Clear
9:51 PM 64.9 °F 59.0 °F 81% 30.02 in 10.0 mi SW 9.2 mph - N/A   Clear
10:51 PM 64.9 °F 57.9 °F 78% 30.03 in 10.0 mi WSW 8.1 mph - N/A   Clear
11:51 PM 64.0 °F 59.0 °F 84% 30.02 in 10.0 mi SSW 8.1 mph - N/A   Clear